パンスターズ彗星

C/2025 E1 ( PanSTARRS )

English version
Home page
Updated on May 2, 2025

---------------------------------------------------------------------

・ プロフィール

発見日 2025年3月2日
発見光度 20.6等
発見者 Pan-STARRS 1 telescope (Haleakala)

・ 写真集

・ 軌道要素

Epoch 2025 May 5.0 TT = JDT 2460800.5
T 2026 Sept. 23.75696 TT                                Pike
q   3.9981897            (2000.0)            P               Q
z  +0.0007056      Peri.  274.42149     -0.02028396     +0.96853100
 +/-0.0000802      Node   344.59771     +0.03655089     -0.24723188
e   0.9971788      Incl.   69.06700     -0.99912591     -0.02870728
From 33 observations 2025 Jan. 3-Apr. 6, mean residual 0".3.

・ 光度変化

        m1 = 9.0 + 5 logΔ + 10.0 log r

---------------------------------------------------------------------

軌道要素はM.P.E.C. 2025-G119に掲載されたものです。
光度グラフはComet for Windowsで作成したものです。

---------------------------------------------------------------------

Copyright(C) Seiichi Yoshida (comet@aerith.net). All rights reserved.